Location: Arborea
(39.7744°N, 8.5819°E)
Time: 09:22:31
(UTC+00:00)

Cosmos 332 Rocket - Pass Details

Date: 29 May 2022
Orbit: 681 x 703 km, 74.0° (Epoch: 02 July)

Event Time Altitude Azimuth Distance (km) Brightness Sun altitude
Exits shadow 00:49:31 31° 292° (WNW) 1,184 4.9 -25.4°
Maximum altitude 00:49:40 31° 296° (WNW) 1,182 4.9 -25.4°
Drops below altitude 10° 00:53:56 10° 359° (N) 2,129 7.2 -25.1°
Sets 00:56:29 0° 10° (N) 3,049 8.4 -24.9°
